Вернуться в каталог

ARIANE 2 DEB

LostGTO
NORAD 33563·DEBRIS·🇫🇷 France

Запущен Jan 27, 1989 с Guiana Space Centre

Loading…

TLE

УстаревшееSource: Space-Track

Эпоха: Jun 8, 2022, 08:04 UTC

1 33563U 89006BF  22159.33639008  .00000007  00000-0 -99975-3 0  9994
2 33563  21.8385 224.6915 7479558  78.9412 349.6239  1.89019423    18

Отслеживайте ARIANE 2 DEB в реальном времени с AllMySat

Download on the App Store